KC4WTI Weather Reports


Display with metric or nautical units.
time (UTC)temp
F
wind
direction
speed
MPH
gust
MPH
rain 1hr
in
rain 24hr
in
rain mn
in
humidity
%
barometer
mb
20260504203211 82 273 6.0 15.0 0.00 0.00 0.00 35 1009.6
20260504202450 82 244 5.0 15.0 0.00 0.00 0.00 35 1009.8
20260504202213 82 233 5.0 15.0 0.00 0.00 0.00 35 1009.8
20260504201709 81 298 6.0 15.0 0.00 0.00 0.00 36 1009.9
20260504200939 81 250 6.0 15.0 0.00 0.00 0.00 35 1010.0
20260504200434 81 236 7.0 19.0 0.00 0.00 0.00 36 1010.1
20260504195927 81 205 7.0 19.0 0.00 0.00 0.00 36 1010.2
20260504195653 81 250 7.0 18.0 0.00 0.00 0.00 36 1010.2
20260504194918 82 198 6.0 16.0 0.00 0.00 0.00 35 1010.2
20260504194416 82 164 5.0 16.0 0.00 0.00 0.00 35 1010.5
20260504193915 82 171 5.0 13.0 0.00 0.00 0.00 38 1010.4
20260504193416 81 190 6.0 17.0 0.00 0.00 0.00 37 1010.5
20260504192946 81 254 7.0 16.0 0.00 0.00 0.00 36 1010.6
20260504192936 81 256 6.0 17.0 0.00 0.00 0.00 36 1010.5
20260504191914 81 178 7.0 16.0 0.00 0.00 0.00 36 1010.7
20260504191633 81 223 6.0 12.0 0.00 0.00 0.00 38 1010.7
20260504190914 81 259 6.0 13.0 0.00 0.00 0.00 38 1010.8
20260504190414 81 165 6.0 17.0 0.00 0.00 0.00 41 1010.9
20260504185915 81 160 6.0 17.0 0.00 0.00 0.00 39 1011.0
20260504185414 81 221 6.0 13.0 0.00 0.00 0.00 39 1011.1
20260504184914 80 280 6.0 18.0 0.00 0.00 0.00 40 1011.0
20260504184414 80 123 7.0 18.0 0.00 0.00 0.00 38 1011.1
20260504183916 80 286 7.0 18.0 0.00 0.00 0.00 41 1011.2
20260504183409 80 152 7.0 19.0 0.00 0.00 0.00 40 1011.2
20260504182903 80 254 7.0 19.0 0.00 0.00 0.00 39 1011.3
20260504182400 80 232 6.0 18.0 0.00 0.00 0.00 40 1011.4
20260504182139 79 306 7.0 18.0 0.00 0.00 0.00 38 1011.5
20260504181402 80 249 7.0 15.0 0.00 0.00 0.00 38 1011.6
20260504180900 80 279 7.0 14.0 0.00 0.00 0.00 40 1011.4
20260504180402 80 238 6.0 13.0 0.00 0.00 0.00 40 1011.6
20260504180127 81 274 5.0 14.0 0.00 0.00 0.00 39 1011.6
20260504175359 81 194 5.0 14.0 0.00 0.00 0.00 40 1011.7
20260504174900 80 169 5.0 18.0 0.00 0.00 0.00 41 1011.7
20260504174626 80 176 6.0 18.0 0.00 0.00 0.00 41 1011.8
20260504173901 79 190 6.0 14.0 0.00 0.00 0.00 40 1011.9
20260504173400 79 255 6.0 14.0 0.00 0.00 0.00 41 1012.0
20260504172900 78 194 6.0 15.0 0.00 0.00 0.00 41 1012.1
20260504172359 79 232 6.0 15.0 0.00 0.00 0.00 42 1012.2
20260504171901 79 271 7.0 15.0 0.00 0.00 0.00 44 1012.1
20260504171401 79 288 6.0 15.0 0.00 0.00 0.00 43 1012.3
20260504170855 79 261 5.0 13.0 0.00 0.00 0.00 45 1012.3
20260504170352 79 294 5.0 12.0 0.00 0.00 0.00 45 1012.4
20260504160348 77 236 6.0 18.0 0.00 0.00 0.00 49 1013.1
20260504151109 76 240 4.0 11.0 0.00 0.00 0.00 52 1013.4
20260504150826 75 246 4.0 10.0 0.00 0.00 0.00 51 1013.5
20260504140839 72 196 2.0 7.0 0.00 0.00 0.00 57 1013.6
20260504140334 71 318 3.0 7.0 0.00 0.00 0.00 59 1013.7
20260504130326 67 185 2.0 6.0 0.00 0.00 0.00 64 1013.3
20260504110303 59 159 1.0 4.0 0.00 0.00 0.00 73 1012.6
20260504100213 60 153 1.0 6.0 0.00 0.00 0.00 70 1012.8
20260504081633 59 138 1.0 2.0 0.00 0.00 0.00 67 1013.1
20260504081135 60 138 1.0 4.0 0.00 0.00 0.00 66 1013.1
20260504080632 60 202 1.0 4.0 0.00 0.00 0.00 66 1013.2
20260504080130 60 190 1.0 6.0 0.00 0.00 0.00 66 1013.2
20260504070120 60 214 1.0 5.0 0.00 0.00 0.00 64 1013.7
20260504045540 61 245 1.0 4.0 0.00 0.00 0.00 60 1014.6
20260504045038 61 216 1.0 5.0 0.00 0.00 0.00 60 1014.5
20260504044803 61 200 1.0 5.0 0.00 0.00 0.00 59 1014.6
20260504044037 61 271 1.0 4.0 0.00 0.00 0.00 59 1014.6
20260504043541 61 163 1.0 4.0 0.00 0.00 0.00 59 1014.7
20260504043035 61 189 1.0 4.0 0.00 0.00 0.00 59 1014.7
20260504042533 61 147 1.0 4.0 0.00 0.00 0.00 59 1014.7
20260504042034 61 169 2.0 5.0 0.00 0.00 0.00 58 1014.7
20260504041534 61 209 1.0 5.0 0.00 0.00 0.00 58 1014.7
20260504041032 61 185 1.0 3.0 0.00 0.00 0.00 58 1014.7
20260504040758 61 196 1.0 3.0 0.00 0.00 0.00 58 1014.7
20260504040031 61 180 1.0 4.0 0.00 0.00 0.00 58 1014.7
20260504035529 61 152 1.0 4.0 0.00 0.00 0.00 58 1014.7
20260504035031 61 183 2.0 4.0 0.00 0.00 0.00 58 1014.8
20260504034528 61 193 1.0 4.0 0.00 0.00 0.00 58 1014.7
20260504034027 61 181 1.0 4.0 0.00 0.00 0.00 58 1014.8
20260504033522 61 155 1.0 4.0 0.00 0.00 0.00 58 1014.9
20260504033016 61 131 1.0 4.0 0.00 0.00 0.00 58 1015.0
20260504032510 60 200 1.0 4.0 0.00 0.00 0.00 58 1015.0
20260504032226 60 173 1.0 4.0 0.00 0.00 0.00 58 1015.1
20260504031500 60 149 1.0 4.0 0.00 0.00 0.00 58 1015.2
20260504030959 60 176 0.0 3.0 0.00 0.00 0.00 58 1015.3
20260504030459 60 176 0.0 2.0 0.00 0.00 0.00 58 1015.3
20260504025959 60 176 0.0 1.0 0.00 0.00 0.00 57 1015.3
20260504025500 61 176 0.0 1.0 0.00 0.00 0.00 57 1015.3
20260504025000 61 176 0.0 1.0 0.00 0.00 0.00 58 1015.3
20260504024501 61 176 0.0 1.0 0.00 0.00 0.00 57 1015.2
20260504024000 61 176 0.0 1.0 0.00 0.00 0.00 57 1015.2
20260504023500 61 176 0.0 1.0 0.00 0.00 0.00 56 1015.3
20260504022957 61 176 0.0 1.0 0.00 0.00 0.00 57 1015.2
20260504022501 61 176 0.0 1.0 0.00 0.00 0.00 56 1015.1
20260504021957 62 176 0.0 1.0 0.00 0.00 0.00 55 1015.1
20260504021458 62 176 0.0 1.0 0.00 0.00 0.00 55 1015.1
20260504020957 62 176 0.0 1.0 0.00 0.00 0.00 55 1014.9
20260504020456 62 176 0.0 2.0 0.00 0.00 0.00 55 1014.9
20260504015957 63 176 0.0 2.0 0.00 0.00 0.00 55 1014.9
20260504015734 63 176 0.0 2.0 0.00 0.00 0.00 54 1014.8
20260504014958 63 176 1.0 1.0 0.00 0.00 0.00 53 1014.8
20260504014458 64 176 0.0 1.0 0.00 0.00 0.00 53 1014.8
20260504014220 64 176 0.0 1.0 0.00 0.00 0.00 51 1014.7
20260504013501 65 176 0.0 1.0 0.00 0.00 0.00 51 1014.8
20260504012959 65 176 0.0 1.0 0.00 0.00 0.00 49 1014.7
20260504012501 66 176 0.0 1.0 0.00 0.00 0.00 49 1014.7
20260504011957 66 176 0.0 1.0 0.00 0.00 0.00 48 1014.7
20260504011458 67 176 0.0 1.0 0.00 0.00 0.00 47 1014.7
20260504010956 67 176 0.0 1.0 0.00 0.00 0.00 46 1014.7
20260504010458 68 176 0.0 1.0 0.00 0.00 0.00 45 1014.7
20260504005956 68 176 1.0 2.0 0.00 0.00 0.00 44 1014.6
20260504005454 69 176 1.0 3.0 0.00 0.00 0.00 43 1014.6
20260504005447 69 176 1.0 3.0 0.00 0.00 0.00 43 1014.7
20260504004456 70 176 0.0 3.0 0.00 0.00 0.00 41 1014.7
20260504003952 70 140 1.0 3.0 0.00 0.00 0.00 40 1014.7
20260504003456 71 140 1.0 4.0 0.00 0.00 0.00 40 1014.6
20260504002953 71 179 1.0 4.0 0.00 0.00 0.00 39 1014.6
20260504002439 72 177 1.0 3.0 0.00 0.00 0.00 38 1014.7
20260504001933 72 204 1.0 4.0 0.00 0.00 0.00 38 1014.6
20260504001431 73 234 1.0 4.0 0.00 0.00 0.00 37 1014.7
20260504000927 73 157 2.0 7.0 0.00 0.00 0.00 36 1014.7
20260504000427 73 260 2.0 7.0 0.00 0.00 0.00 35 1014.7
20260503235927 74 206 2.0 5.0 0.00 0.00 0.00 35 1014.7
20260503235425 74 206 2.0 8.0 0.00 0.00 0.00 35 1014.8
20260503235150 74 250 2.0 8.0 0.00 0.00 0.00 34 1014.8
20260503234646 74 268 2.0 7.0 0.00 0.00 0.00 34 1014.8
20260503234144 74 261 3.0 10.0 0.00 0.00 0.00 34 1014.8
20260503233424 74 271 3.0 10.0 0.00 0.00 0.00 33 1014.8
20260503233141 75 274 3.0 7.0 0.00 0.00 0.00 33 1014.9
20260503232424 75 267 3.0 6.0 0.00 0.00 0.00 33 1015.0
20260503231922 75 240 2.0 7.0 0.00 0.00 0.00 32 1015.0
20260503231419 75 232 2.0 7.0 0.00 0.00 0.00 33 1015.1
20260503230919 75 185 2.0 7.0 0.00 0.00 0.00 32 1015.2
20260503230423 75 211 3.0 9.0 0.00 0.00 0.00 33 1015.2
20260503225919 75 225 3.0 9.0 0.00 0.00 0.00 32 1015.2
20260503225419 75 224 3.0 10.0 0.00 0.00 0.00 32 1015.2
20260503224920 75 152 4.0 9.0 0.00 0.00 0.00 32 1015.2
20260503224412 75 262 3.0 8.0 0.00 0.00 0.00 32 1015.3
20260503223906 75 261 3.0 9.0 0.00 0.00 0.00 32 1015.4
20260503223848 75 242 4.0 9.0 0.00 0.00 0.00 32 1015.4
20260503222905 75 205 4.0 8.0 0.00 0.00 0.00 32 1015.5
20260503222626 75 257 4.0 9.0 0.00 0.00 0.00 32 1015.5
20260503221905 76 165 4.0 9.0 0.00 0.00 0.00 32 1015.7
20260503221411 76 232 3.0 9.0 0.00 0.00 0.00 31 1015.6
20260503220908 76 235 3.0 8.0 0.00 0.00 0.00 31 1015.8
20260503220406 76 284 2.0 8.0 0.00 0.00 0.00 32 1015.8
20260503215905 76 270 2.0 10.0 0.00 0.00 0.00 32 1016.0
20260503215405 75 227 3.0 10.0 0.00 0.00 0.00 33 1016.0
20260503214905 75 264 3.0 11.0 0.00 0.00 0.00 31 1016.0
20260503214406 75 170 4.0 13.0 0.00 0.00 0.00 32 1016.2
20260503213902 75 304 4.0 13.0 0.00 0.00 0.00 34 1016.2
20260503213404 75 254 4.0 13.0 0.00 0.00 0.00 33 1016.4
20260503212903 76 263 3.0 13.0 0.00 0.00 0.00 32 1016.5
20260503212403 76 236 3.0 10.0 0.00 0.00 0.00 33 1016.5
20260503211903 75 217 4.0 10.0 0.00 0.00 0.00 32 1016.7
20260503211402 75 245 3.0 8.0 0.00 0.00 0.00 32 1016.7
20260503211126 74 278 4.0 10.0 0.00 0.00 0.00 34 1016.8
20260503210625 74 290 5.0 11.0 0.00 0.00 0.00 31 1016.9
20260503205858 74 240 4.0 11.0 0.00 0.00 0.00 33 1016.9
20260503205359 74 273 5.0 13.0 0.00 0.00 0.00 33 1017.0
20260503204859 74 263 5.0 13.0 0.00 0.00 0.00 33 1017.3